Location: ????????
(55.4000°N, 39.1167°E)
Time: 07:41:32
(UTC+00:00)

Cosmos 1538 Rocket - Pass Details

Date: 19 May 2025
Orbit: 749 x 788 km, 74.0° (Epoch: 15 June)

Event Time Altitude Azimuth Distance (km) Brightness Sun altitude
Exits shadow 21:10:26 19° 205° (SSW) 1,741 5.3 -14.6°
Maximum altitude 21:14:12 89° 123° (ESE) 759 3.9 -14.6°
Drops below altitude 10° 21:19:23 10° 28° (NNE) 2,282 7.4 -14.6°
Sets 21:21:45 0° 29° (NNE) 3,211 8.4 -14.6°
